Regional Weather Roundup
Issued by NWS

Home | Current Version | Previous Version | Graphics & Text | Print | Product List | Glossary On
Versions: 1 2 3 4 5 6 7 8 9 10 11 12 13 14 15 16 17 18 19 20 21 22 23 24 25 26 27 28 29 30 31 32 33 34 35 36 37 38 39 40 41 42 43 44 45 46 47 48 49 50
000
ASUS43 KFSD 251302
RWRSD

WEATHER ROUNDUP FOR SOUTH DAKOTA
NATIONAL WEATHER SERVICE SIOUX FALLS SD
700 AM CST THU DEC 25 2014

NOTE: "FAIR" INDICATES FEW OR NO CLOUDS BELOW 12,000 FEET WITH NO
SIGNIFICANT WEATHER AND/OR OBSTRUCTIONS TO VISIBILITY.


SDZ001>005-009-010-012>017-251400-
NORTHWEST AND NORTH CENTRAL SOUTH DAKOTA

CITY           SKY/WX    TMP DP  RH WIND       PRES   REMARKS
FAITH            N/A     30  27  88 N9        29.59R WCI  22
MOBRIDGE       CLOUDY    32  26  78 N15       29.59R WCI  22
$$

SDZ012>016-024>037-041>051-057-063-072>074-251400-
SOUTHWEST AND SOUTH CENTRAL SOUTH DAKOTA

CITY           SKY/WX    TMP DP  RH WIND       PRES   REMARKS
RAPID CTY ARPT LGT SNOW  31  29  92 N14       29.58R FOG     WCI  21
PIERRE         MIX PCPN  33  31  92 NE12      29.56R WCI  24
CUSTER         CLOUDY    27  22  81 NE9       29.47R WCI  18
ELLSWORTH AFB  MIX PCPN  30  30  98 N13       29.58R WCI  20
PHILIP         LGT SNOW  32  30  92 NE12      29.57R FOG     WCI  23
PINE RIDGE     CLOUDY    29  24  82 NE7       29.52R WCI  22
WINNER         CLOUDY    28  23  81 N10       29.56R WCI  19
$$

SDZ004>011-016>023-039-040-251400-
NORTHEAST SOUTH DAKOTA

CITY           SKY/WX    TMP DP  RH WIND       PRES   REMARKS
ABERDEEN       CLOUDY    30  26  85 NW3       29.63R
WATERTOWN      LGT SNOW  28  26  92 NW3       29.59R FOG
SISSETON         N/A     30  28  92 NW6       29.60R WCI  24
$$

SDZ017-020-022-023-036>040-048>070-251400-
SOUTHEAST SOUTH DAKOTA

CITY           SKY/WX    TMP DP  RH WIND       PRES   REMARKS
SIOUX FALLS    CLOUDY    28  25  88 SE3       29.58R
HURON          FRZ RAIN  28  25  86 N8        29.60R WCI  20
CHAMBERLAIN    MIX PCPN  28  26  89 N8        29.55S WCI  20
MITCHELL       CLOUDY    28  26  92 NE12      29.58R WCI  18
YANKTON        CLOUDY    27  23  86 E6        29.57R WCI  20
$$

ABBREVIATIONS USED IN REMARKS
   TC - TEMPERATURE IN CELSIUS
  WCI - WIND CHILL INDEX
   HX - HEAT INDEX
  VSB - VISIBILITY



USA.gov is the U.S. government's official web portal to all federal, state and local government web resources and services.